Prox-1
1 44339U 19036A   25029.56768881  .00017289  00000-0  24474-2 0  9999
2 44339  23.9951 199.6565 0008354  23.5337 336.5540 14.75458393298619
SONATE
1 44400U 19038Q   25029.52947671  .00067284  00000-0  94426-3 0  9997
2 44400  97.7104  43.0669 0011024  26.7219 333.4601 15.56447052308993
Taurus 1
1 44530U 19059C   25029.80923345  .00013443  00000-0  26563-2 0  9991
2 44530  98.5903 163.4377 0009610  79.9473 280.2811 14.62485566284809
Duchifat 3
1 44854U 19089C   25029.57051321  .00043530  00000-0  13426-2 0  9997
2 44854  36.9492  99.5832 0010106 187.5485 172.5117 15.32591834282740
TO-108
1 44881U 19093C   25029.87263145  .00002225  00000-0  26636-3 0  9998
2 44881  97.8065 108.2266 0012801 303.8549  56.1448 14.85063334276674
FloripaSat 1
1 44885U 19093G   25029.76596038  .00010461  00000-0  94066-3 0  9993
2 44885  97.8240 117.3146 0010398 283.7307  76.2756 14.95808132277173
RS-44
1 44909U 19096E   25029.52318773  .00000021  00000-0  47329-4 0  9997
2 44909  82.5247 314.3740 0216399 241.9328 115.9743 12.79737994237928
UPMSat 2
1 46276U 20061E   25029.21781618  .00052639  00000-0  89823-3 0  9994
2 46276  97.2661 100.8604 0001152  64.8413 295.2959 15.51170177244996
AmicalSat
1 46287U 20061R   25010.85863821  .11283921  24654-5  56408-3 0  9994
2 46287  97.2840  89.8720 0009935 281.1985  78.8199 16.41970930241877
SALSAT
1 46495U 20068K   25029.39299047  .00014691  00000-0  69474-3 0  9999
2 46495  97.8458   1.7879 0010282 254.0465 105.9636 15.19450042238589
CubeSX-Sirius-HSE
1 47951U 21022V   25029.89806892  .00078484  00000-0  13962-2 0  9995
2 47951  97.4371 296.6605 0011511  57.5101 302.7261 15.49810030213368
CubeSX-HSE
1 47952U 21022W   25029.81830562  .00073369  00000-0  12897-2 0  9992
2 47952  97.4365 296.7463 0011465  56.7231 303.5117 15.50170964213364
KSU-Cubesat
1 47954U 21022Y   25029.68743650  .00177798  00000-0  17217-2 0  9992
2 47954  97.4359 300.2365 0009668  60.2438 299.9782 15.65776102213292
GRBAlpha
1 47959U 21022AD  25029.84323092  .00076897  00000-0  13558-2 0  9991
2 47959  97.4363 296.9364 0011496  57.7457 302.4907 15.50070655212197
Orbicraft-Zorkiy
1 47960U 21022AE  25029.81367998  .00103388  00000-0  13129-2 0  9993
2 47960  97.4357 299.7358 0010281  56.4119 303.8117 15.59005318213033
TUBIN
1 48900U 21059X   25029.58283166  .00043385  00000-0  87517-3 0  9999
2 48900  97.6637 189.6896 0005291   1.6082 358.5182 15.46398505199706
LEDSAT
1 49069U 21073D   25029.24269344  .00056317  00000-0  12810-2 0  9999
2 49069  97.4077 107.0645 0013163 195.5130 164.5716 15.42706806191072
CUTE
1 49263U 21088D   25029.23612187  .00062221  00000-0  15667-2 0  9991
2 49263  97.4679 102.2096 0009303   5.8093 354.3259 15.39650982184167
TeikyoSat 4
1 49396U 21102B   25029.56353143  .00003632  00000-0  24865-3 0  9997
2 49396  97.4301  72.6607 0011623 216.2981 143.7459 15.06640348176810
Z-Sat
1 49399U 21102E   25029.85038757  .00007957  00000-0  45876-3 0  9992
2 49399  97.4010  75.3010 0018357 192.1831 167.8958 15.12496800177209
KOSEN 1
1 49402U 21102H   25029.84043951  .00010614  00000-0  53299-3 0  9990
2 49402  97.3921  77.8081 0017005 170.5481 189.6076 15.17341754177440
HO-113
1 50466U 21131B   25029.84397786  .00001355  00000-0  43965-3 0  9993
2 50466  98.5156 119.8635 0004623 156.7134 203.4265 14.40493140162621
IRIS-A
1 51044U 22002BN  25029.46294113  .00084649  00000-0  12468-2 0  9992
2 51044  97.3486 103.9746 0003767 303.6874  56.4021 15.55124819169271
Foresail-1
1 52766U 22057AL  25029.42558330  .00076575  00000-0  11390-2 0  9996
2 52766  97.5973 169.8940 0005784  29.9705 330.1879 15.54876108149304
SNUGLITE 2
1 52899U 22065F   25029.37286930  .00003063  00000-0  61285-3 0  9991
2 52899  98.1456 172.8460 0007938 157.9786 202.1758 14.62525625137303
IO-117
1 53106U 22080B   25027.56054429 -.00000003  00000-0  00000+0 0  9991
2 53106  70.1423 114.5706 0008128  54.9517 305.1905  6.42557612 59687
FO-118
1 54684U 22167C   25029.87694283  .00271104  00000-0  18368-2 0  9993
2 54684  97.6104 191.7801 0005093 351.3323   8.7852 15.74201815119319
SO-120
1 56992U 23084BU  25029.26983020  .00753327  00000-0  27602-2 0  9992
2 56992  97.5255 163.4782 0010197 295.5902  64.4314 15.86497912 91113
UmKA 1 (RS40S)
1 57172U 23091G   25029.89477343  .00011308  00000-0  64541-3 0  9996
2 57172  97.5799  86.0396 0016482  67.3401 292.9571 15.12792038 87709
CubeBel-2 (EU11S)
1 57175U 23091K   25029.87874812  .00015056  00000-0  79763-3 0  9995
2 57175  97.5800  86.5100 0014640  77.0359 283.2507 15.15407349 87733
VERONIKA
1 58261U 23174F   25029.81059768  .00060608  00000-0  13944-2 0  9994
2 58261  97.4324 111.1603 0007775 157.4683 202.6907 15.42405259 68362
KAFASAT
1 58317U 23174BP  25029.49177275  .00142270  00000-0  18418-2 0  9991
2 58317  97.4220 113.6822 0003846 131.5813 228.5773 15.58408975 68523
ENSO
1 58470U 23185J   25029.79821316  .00043681  00000-0  10825-2 0  9998
2 58470  97.3943 102.1823 0008779 188.9489 171.1602 15.40231225 64807
EIRSAT-1
1 58472U 23185L   25029.79152588  .00056440  00000-0  12415-2 0  9992
2 58472  97.3935 102.7616 0007982 189.2225 170.8878 15.43763949 64844
SONATE-2
1 59112U 24043Q   25029.59345072  .00023449  00000-0  83068-3 0  9994
2 59112  97.4964 158.9249 0011718 217.1777 142.8652 15.29052131 50278
MO-122
1 60209U 24125G   25029.37069405  .00028525  00000-0  99787-3 0  9998
2 60209  97.2945 242.9111 0020275 246.7906 113.1199 15.29287356 31855
GRBBeta
1 60237U 24128C   25029.49675447  .00008184  00000-0  64992-3 0  9993
2 60237  61.9920 175.9522 0037989  26.6961 333.6073 15.00615828 30514
Curium One
1 60242U 24128H   25029.49635274  .00013878  00000-0  10578-2 0  9999
2 60242  61.9826 175.7210 0038091  20.7446 339.5180 15.01745119 30528
ROBUSTA-3A
1 60243U 24128J   25029.53042336  .00013345  00000-0  10291-2 0  9997
2 60243  61.9892 176.0398 0036155  18.6086 341.6317 15.01385862 30529
CatSat
1 60246U 24125J   25029.30931638  .00018963  00000-0  70754-3 0  9996
2 60246  97.2735 243.2973 0045416 199.1796 160.7735 15.26460628 29937
AO-123
1 61781U 24199AY  25029.58766835  .00014517  00000-0  57699-3 0  9991
2 61781  97.3754 259.0669 0015739 305.8853  54.0923 15.25291663 56895
POEM 4 (BGS ARPIT)
1 62461U 24253C   25029.69186333  .00116880  00000-0  67343-3 0  9992
2 62461  55.2210 112.5902 0009959   7.4776 352.6419 15.77853628  4713
